Location: Newark
(41.9364°N, 2.8061°E)
Time: 21:07:44
(UTC+00:00)

A-11 Canister half - Pass Details

Date: 26 February 2020
Orbit: 1516 x 1683 km, 47.2° (Epoch: 09 April)

Event Time Altitude Azimuth Distance (km) Brightness Sun altitude
Rises 22:33:51 0° 292° (WNW) 4,787 12.1 -51.5°
Reaches altitude 10° 22:37:52 10° 279° (W) 3,771 11.3 -51.9°
Enters shadow 22:40:05 16° 267° (W) 3,319 10.9 -52.2°
